User: anonymous   Login
Location: Unspecified
(0.0000°N, 0.0000°E)
Time: 23:55:02
(UTC+00:00)
Language:

STARLINK-4786 - Orbit

View from above orbital plane
View from above orbital plane
View from above satellite
View from above satellite

Ground track
Ground track

The orbit is defined by the following mean orbital elements,

1 55393U          26145.49985346 +.00000000 +00000-0 +23801-4 0 00002
2 55393  69.9992 230.6858 0003612 268.4269  91.6477 14.98330613    04
Epoch (UTC): 25 May 2026 11:59:47
Eccentricity: 0.0003612
inclination: 69.9992°
perigee height: 570 km
apogee height: 575 km
right ascension of ascending node: 230.6858°
argument of perigee: 268.4269°
revolutions per day: 14.98330613
mean anomaly at epoch: 91.6477°

The dashed part of the orbit path shows where the satellite is in the earth's shadow,  

DLR